SNUGLITE 2
1 52899U 22065F   25359.65267809  .00001415  00000-0  27996-3 0  9992
2 52899  98.1934 140.1134 0007105 200.7546 159.3368 14.63871427185608
UmKA 1 (RS40S)
1 57172U 23091G   25359.79178542  .00006805  00000-0  33395-3 0  9999
2 57172  97.5318  54.1997 0013664  10.3824 349.7690 15.18340047137675
CubeBel-2 (EU11S)
1 57175U 23091K   25359.78551913  .00014636  00000-0  59909-3 0  9998
2 57175  97.5316  56.7988 0011064  13.3620 346.7908 15.24366299137845
RS-38S
1 57189U 23091Z   25359.85551834  .00017071  00000-0  59376-3 0  9997
2 57189  97.5341  61.4328 0007601 336.5387  23.5505 15.29758139138130
SONATE-2
1 59112U 24043Q   25359.66771297  .00030346  00000-0  62641-3 0  9998
2 59112  97.5339 136.4082 0009361 117.1024 243.1181 15.45767427100970
MO-122
1 60209U 24125G   25359.53414213  .00035033  00000-0  68946-3 0  9998
2 60209  97.2508 209.9217 0015167 131.9236 228.3310 15.47048753 82581
GRBBeta
1 60237U 24128C   25359.64241111  .00005520  00000-0  38990-3 0  9993
2 60237  61.9906 104.4141 0055751  99.0500 261.6907 15.04885645 80131
Curium One
1 60242U 24128H   25359.78343220  .00009613  00000-0  59433-3 0  9990
2 60242  61.9797  98.4841 0055538  95.7615 264.9815 15.09133378 80258
ROBUSTA-3A
1 60243U 24128J   25359.79275459  .00009438  00000-0  59498-3 0  9996
2 60243  61.9871 100.0446 0055737  93.2058 267.5414 15.08434280 80235
CatSat
1 60246U 24125J   25359.53216147  .00039108  00000-0  91356-3 0  9993
2 60246  97.2299 206.7864 0034375  99.0203 261.4937 15.41449602 80495
HYPERVIEW-1G (RS66S)
1 61772U 24199AP  25359.86200451  .00046829  00000-0  86452-3 0  9995
2 61772  97.3194 229.4703 0008919 181.0387 179.0847 15.48916895107640
AO-123
1 61781U 24199AY  25359.86583816  .00011498  00000-0  37084-3 0  9995
2 61781  97.3236 225.1739 0013540 203.4584 156.6042 15.32224557107359
ZIMSAT 2
1 61783U 24199BA  25359.68218818  .00307514  00000-0  16405-2 0  9994
2 61783  97.3040 233.3458 0006173 135.3519 224.8246 15.79549926111044
HADES-R (SO-124)
1 62690U 25009CK  25359.20320514  .00228034  00000-0  24299-2 0  9997
2 62690  97.3839  82.3408 0001305 279.6626  80.4485 15.63232331 52720
HYDRA-T
1 62692U 25009CM  25358.97255274  .00244664  00000-0  23689-2 0  9991
2 62692  97.3836  82.3429 0001802 284.4394  75.6666 15.65619276 52704
JINJUSat 1B
1 63210U 25052A   25359.69579980  .00017856  00000-0  67339-3 0  9991
2 63210  97.4195 251.7741 0004198  14.3928 345.7430 15.27104706 43562
NUSHSAT 1
1 63211U 25052B   25359.68192191  .00020317  00000-0  73995-3 0  9997
2 63211  97.4169 251.9003 0004358  18.1964 341.9431 15.28227321 43577
TEVEL2-4
1 63213U 25052D   25359.62309826  .00018611  00000-0  69296-3 0  9991
2 63213  97.4091 251.3666 0004233  36.3506 323.8020 15.27518087 43550
TEVEL2-5
1 63214U 25052E   25359.69471383  .00018781  00000-0  70081-3 0  9999
2 63214  97.4097 251.4234 0004226  35.8971 324.2551 15.27443369 43566
TEVEL2-6
1 63215U 25052F   25359.70242116  .00018666  00000-0  69751-3 0  9996
2 63215  97.4095 251.4192 0004311  35.6535 324.4991 15.27396891 43564
TEVEL2-1
1 63217U 25052H   25359.68238469  .00018287  00000-0  69048-3 0  9999
2 63217  97.4070 251.1989 0004767  43.9633 316.1984 15.27056852 43555
TEVEL2-3
1 63218U 25052J   25359.68139306  .00018408  00000-0  69452-3 0  9994
2 63218  97.4072 251.2043 0004791  44.5316 315.6307 15.27080240 43553
TEVEL2-2
1 63219U 25052K   25359.68314058  .00018013  00000-0  68018-3 0  9993
2 63219  97.4065 251.2005 0004759  43.6021 316.5594 15.27057901 43557
TEVEL2-9
1 63237U 25052AD  25359.65899213  .00018210  00000-0  71920-3 0  9996
2 63237  97.4134 250.8639 0008777  46.1022 314.0939 15.25534295 43511
TEVEL2-7
1 63238U 25052AE  25359.67421484  .00017494  00000-0  69437-3 0  9993
2 63238  97.4138 250.8507 0008936  46.2832 313.9145 15.25376313 43519
TEVEL2-8
1 63239U 25052AF  25359.68006889  .00017016  00000-0  67603-3 0  9996
2 63239  97.4136 250.8405 0008938  46.4898 313.7081 15.25350531 43512
HYDRA-W
1 63490U 25052BL  25359.67844115  .00075634  00000-0  16906-2 0  9995
2 63490  97.4054 253.6595 0010508  38.3862 321.8131 15.43176575 43710
HADES-ICM (SO-125)
1 63492U 25052BN  25359.17108067  .00068711  00000-0  16576-2 0  9992
2 63492  97.4050 252.8375 0010902  42.6381 317.5709 15.40907730 43611
Dragonfly
1 65729U 98067XH  25359.43594503  .00205682  00000-0  12462-2 0  9996
2 65729  51.6246  70.5435 0008108 352.3473   7.7402 15.76365427 15162
RSP-03
1 65732U 98067XL  25359.27682213  .00147046  00000-0  10911-2 0  9994
2 65732  51.6260  72.4976 0006046 331.0295  29.0366 15.71873826 15133
GHS-01
1 65733U 98067XM  25359.48560038  .00286420  00000-0  14102-2 0  9994
2 65733  51.6282  69.3856 0009282 357.4612   2.6342 15.80737686 15190
BOTAN
1 65942U 98067XP  25359.49586471  .00114850  00000-0  11099-2 0  9995
2 65942  51.6278  74.7240 0003445 339.5705  20.5152 15.65573117 11861
CEVROSAT1
1 66309U 25248S   25359.63290355  .00013597  00000-0  66291-3 0  9994
2 66309  45.4059 330.8315 0001975 177.1820 182.9077 15.18340037  8110
BEE-1000
1 66650U 25274A   25359.76592792  .00001737  00000-0  17801-3 0  9992
2 66650  97.7405 286.7153 0011154 203.6875 156.3831 14.91704578  4346
SPIRONE
1 66657U 25274H   25359.75074113  .00003661  00000-0  36151-3 0  9997
2 66657  97.7400 286.7340 0010960 226.2948 133.7364 14.92527899  4342
K-HERO
1 66660U 25274L   25359.80788142  .00003167  00000-0  30942-3 0  9994
2 66660  97.7404 286.8151 0012851 232.0966 127.9092 14.93030361  4355
SNUGLITE-III DURI
1 66661U 25274M   25359.73808600  .00002847  00000-0  27774-3 0  9992
2 66661  97.7401 286.7518 0013466 233.8650 126.1324 14.93161533  4345
SilverSat
1 66909U 98067XV  25358.50619156  .00074602  00000-0  11618-2 0  9994
2 66909  51.6310  83.8633 0003825 300.8028  59.2585 15.53202951  3446
